time, Switch, Flow(0), Analog(2)
yyyy/mm/dd HH:MM:SS.fff, True=FILTERED|False=TOTAL, L/min, V
2023/06/20 19:00:05.121, True, 1.656, 0.127718
2023/06/20 19:00:05.617, True, 1.685, 0.128634
2023/06/20 19:00:06.121, True, 1.661, 0.128710
2023/06/20 19:00:06.625, True, 1.655, 0.128176
2023/06/20 19:00:07.129, True, 1.658, 0.128634
2023/06/20 19:00:07.625, True, 1.685, 0.127565
2023/06/20 19:00:08.129, True, 1.326, 0.129168
2023/06/20 19:00:08.633, True, 1.658, 0.128405
2023/06/20 19:00:09.129, True, 1.685, 0.129091
2023/06/20 19:00:09.633, True, 1.661, 0.129854
2023/06/20 19:00:10.129, True, 1.683, 0.127718
2023/06/20 19:00:10.633, True, 1.657, 0.129778
2023/06/20 19:00:11.137, True, 1.661, 0.129625
2023/06/20 19:00:11.633, True, 1.682, 0.128252
2023/06/20 19:00:12.137, True, 1.661, 0.128099
2023/06/20 19:00:12.641, True, 1.655, 0.130312
2023/06/20 19:00:13.137, True, 2.021, 0.129549
2023/06/20 19:00:13.641, True, 1.659, 0.130007
2023/06/20 19:00:14.145, True, 1.657, 0.129397
2023/06/20 19:00:14.641, True, 1.685, 0.129397
2023/06/20 19:00:15.145, True, 1.658, 0.131609
2023/06/20 19:00:15.649, True, 1.660, 0.130007
2023/06/20 19:00:16.145, True, 1.683, 0.129854
2023/06/20 19:00:16.649, True, 1.658, 0.128557
2023/06/20 19:00:17.153, True, 1.327, 0.127642
2023/06/20 19:00:17.649, True, 1.685, 0.127718
2023/06/20 19:00:18.153, True, 1.658, 0.128557
2023/06/20 19:00:18.649, True, 1.685, 0.127489
2023/06/20 19:00:19.153, True, 1.660, 0.129625
2023/06/20 19:00:19.657, True, 1.656, 0.127108
2023/06/20 19:00:20.153, True, 1.685, 0.129702
2023/06/20 19:00:20.657, True, 1.990, 0.129015
2023/06/20 19:00:21.161, True, 1.659, 0.127947
2023/06/20 19:00:21.657, True, 1.684, 0.130083
2023/06/20 19:00:22.161, True, 1.659, 0.125505
2023/06/20 19:00:22.665, True, 1.657, 0.128786
2023/06/20 19:00:23.161, True, 1.684, 0.127642
2023/06/20 19:00:23.665, True, 1.991, 0.130236
2023/06/20 19:00:24.169, True, 1.657, 0.126650
2023/06/20 19:00:24.665, True, 1.348, 0.128176
2023/06/20 19:00:25.169, True, 1.990, 0.127337
2023/06/20 19:00:25.673, True, 1.657, 0.130236
2023/06/20 19:00:26.169, True, 1.688, 0.127489
2023/06/20 19:00:26.673, True, 1.324, 0.127565
2023/06/20 19:00:27.177, True, 1.989, 0.128786
2023/06/20 19:00:27.673, True, 1.685, 0.128176
2023/06/20 19:00:28.177, True, 1.658, 0.128099
2023/06/20 19:00:28.673, True, 1.685, 0.128634
2023/06/20 19:00:29.177, True, 1.658, 0.131609
2023/06/20 19:00:29.681, True, 1.660, 0.129473
2023/06/20 19:00:30.177, True, 1.682, 0.127565
2023/06/20 19:00:30.681, True, 1.658, 0.128939
2023/06/20 19:00:31.185, True, 1.658, 0.129931
2023/06/20 19:00:31.681, True, 1.685, 0.130388
2023/06/20 19:00:32.185, True, 1.660, 0.129015
2023/06/20 19:00:32.681, True, 1.683, 0.130770
2023/06/20 19:00:33.185, True, 1.660, 0.127947
2023/06/20 19:00:33.689, True, 1.657, 0.127489
2023/06/20 19:00:34.193, True, 1.657, 0.127871
2023/06/20 19:00:34.689, True, 1.684, 0.129473
2023/06/20 19:00:35.193, True, 1.658, 0.129091
2023/06/20 19:00:35.697, True, 1.658, 0.128481
2023/06/20 19:00:36.193, True, 1.685, 0.129625
2023/06/20 19:00:36.697, True, 1.659, 0.127413
2023/06/20 19:00:37.201, True, 1.657, 0.129702
2023/06/20 19:00:37.705, True, 1.658, 0.126574
2023/06/20 19:00:38.201, True, 1.685, 0.129397
2023/06/20 19:00:38.705, True, 1.658, 0.129625
2023/06/20 19:00:39.209, True, 1.658, 0.130236
2023/06/20 19:00:39.705, True, 1.685, 0.128481
2023/06/20 19:00:40.209, True, 1.661, 0.130846
2023/06/20 19:00:40.713, True, 1.655, 0.130159
2023/06/20 19:00:41.217, True, 1.658, 0.131075
2023/06/20 19:00:41.713, True, 1.685, 0.129320
2023/06/20 19:00:42.217, True, 1.658, 0.129625
2023/06/20 19:00:42.721, True, 1.658, 0.132906
2023/06/20 19:00:43.217, True, 1.685, 0.132906
2023/06/20 19:00:43.721, True, 1.659, 0.132830
2023/06/20 19:00:44.225, True, 1.657, 0.132753
2023/06/20 19:00:44.721, True, 1.685, 0.132753
2023/06/20 19:00:45.225, True, 1.658, 0.132830
2023/06/20 19:00:45.721, True, 1.685, 0.134051
2023/06/20 19:00:46.225, True, 1.658, 0.133669
2023/06/20 19:00:46.729, True, 1.658, 0.135348
2023/06/20 19:00:47.225, True, 1.685, 0.135805
2023/06/20 19:00:47.729, True, 1.658, 0.135119
2023/06/20 19:00:48.233, True, 1.326, 0.134966
2023/06/20 19:00:48.737, True, 1.990, 0.135882
2023/06/20 19:00:49.233, True, 1.685, 0.135348
2023/06/20 19:00:49.737, True, 1.658, 0.133898
2023/06/20 19:00:50.241, True, 1.660, 0.135729
2023/06/20 19:00:50.745, True, 1.655, 0.138170
2023/06/20 19:00:51.241, True, 1.685, 0.135653
2023/06/20 19:00:51.745, True, 1.658, 0.138094
2023/06/20 19:00:52.241, True, 1.685, 0.137407
2023/06/20 19:00:52.745, True, 1.658, 0.136950
2023/06/20 19:00:53.249, True, 1.658, 0.136339
2023/06/20 19:00:53.745, True, 1.684, 0.139086
2023/06/20 19:00:54.249, True, 1.658, 0.141146
2023/06/20 19:00:54.753, True, 1.658, 0.139010
2023/06/20 19:00:55.257, True, 1.327, 0.139773
2023/06/20 19:00:55.753, True, 1.684, 0.139620
2023/06/20 19:00:56.256, True, 1.658, 0.140383
2023/06/20 19:00:56.761, True, 1.658, 0.138094
2023/06/20 19:00:57.257, True, 1.685, 0.137560
2023/06/20 19:00:57.761, True, 1.658, 0.141756
2023/06/20 19:00:58.265, True, 1.658, 0.139010
2023/06/20 19:00:58.761, True, 1.685, 0.139773
2023/06/20 19:00:59.265, True, 1.990, 0.139391
2023/06/20 19:00:59.769, True, 1.658, 0.140841
2023/06/20 19:01:00.265, True, 1.348, 0.140078
2023/06/20 19:01:00.769, True, 1.658, 0.140154
2023/06/20 19:01:01.273, True, 1.658, 0.138628
2023/06/20 19:01:01.769, True, 1.685, 0.140993
2023/06/20 19:01:02.273, True, 1.659, 0.137255
2023/06/20 19:01:02.777, True, 1.658, 0.139010
2023/06/20 19:01:03.273, True, 1.684, 0.139544
2023/06/20 19:01:03.777, True, 1.659, 0.140230
2023/06/20 19:01:04.281, True, 1.657, 0.141833
2023/06/20 19:01:04.777, True, 1.685, 0.139010
2023/06/20 19:01:05.281, True, 1.991, 0.141146
2023/06/20 19:01:05.785, True, 1.656, 0.138552
2023/06/20 19:01:06.281, True, 1.685, 0.140536
2023/06/20 19:01:06.785, True, 1.660, 0.139086
2023/06/20 19:01:07.289, True, 1.657, 0.140841
2023/06/20 19:01:07.785, True, 1.685, 0.138781
2023/06/20 19:01:08.289, True, 1.660, 0.141527
2023/06/20 19:01:08.793, True, 1.656, 0.141833
2023/06/20 19:01:09.289, True, 1.685, 0.140536
2023/06/20 19:01:09.793, True, 1.659, 0.142519
2023/06/20 19:01:10.289, True, 1.684, 0.140307
2023/06/20 19:01:10.793, True, 1.992, 0.140230
2023/06/20 19:01:11.297, True, 1.658, 0.140764
2023/06/20 19:01:11.793, True, 1.683, 0.140612
2023/06/20 19:01:12.297, True, 1.658, 0.141451
2023/06/20 19:01:12.801, True, 1.326, 0.140993
2023/06/20 19:01:13.297, True, 2.022, 0.139849
2023/06/20 19:01:13.800, True, 1.658, 0.142748
2023/06/20 19:01:14.305, True, 1.661, 0.141680
2023/06/20 19:01:14.809, True, 1.655, 0.139849
2023/06/20 19:01:15.305, True, 1.685, 0.141375
2023/06/20 19:01:15.809, True, 1.658, 0.140536
2023/06/20 19:01:16.313, True, 1.658, 0.141680
2023/06/20 19:01:16.809, True, 1.685, 0.140078
2023/06/20 19:01:17.313, True, 1.661, 0.139620
2023/06/20 19:01:17.816, True, 1.655, 0.141375
2023/06/20 19:01:18.320, True, 1.658, 0.142443
2023/06/20 19:01:18.817, True, 1.685, 0.138705
2023/06/20 19:01:19.321, True, 1.658, 0.140993
2023/06/20 19:01:19.825, True, 1.658, 0.140841
2023/06/20 19:01:20.321, True, 1.687, 0.139544
2023/06/20 19:01:20.825, True, 1.656, 0.141375
2023/06/20 19:01:21.321, True, 1.686, 0.140383
2023/06/20 19:01:21.825, True, 1.656, 0.139010
2023/06/20 19:01:22.329, True, 1.658, 0.141375
2023/06/20 19:01:22.825, True, 1.685, 0.141909
2023/06/20 19:01:23.329, True, 1.658, 0.139773
2023/06/20 19:01:23.825, True, 1.685, 0.142138
2023/06/20 19:01:24.329, True, 1.329, 0.141451
2023/06/20 19:01:24.833, True, 1.655, 0.139086
2023/06/20 19:01:25.337, True, 1.661, 0.140307
2023/06/20 19:01:25.833, True, 1.345, 0.140307
2023/06/20 19:01:26.337, True, 1.660, 0.143053
2023/06/20 19:01:26.841, True, 1.658, 0.141756
2023/06/20 19:01:27.337, True, 1.683, 0.141680
2023/06/20 19:01:27.841, True, 1.659, 0.139925
2023/06/20 19:01:28.345, True, 1.657, 0.139162
2023/06/20 19:01:28.849, True, 1.660, 0.140612
2023/06/20 19:01:29.344, True, 2.022, 0.139925
2023/06/20 19:01:29.849, True, 1.655, 0.140612
2023/06/20 19:01:30.352, True, 1.658, 0.141604
2023/06/20 19:01:30.849, True, 1.687, 0.141527
2023/06/20 19:01:31.353, True, 1.657, 0.139849
2023/06/20 19:01:31.857, True, 1.657, 0.141070
2023/06/20 19:01:32.353, True, 1.684, 0.142290
2023/06/20 19:01:32.857, True, 1.993, 0.141756
2023/06/20 19:01:33.361, True, 1.658, 0.141604
2023/06/20 19:01:33.857, True, 1.681, 0.138628
2023/06/20 19:01:34.361, True, 1.658, 0.140002
2023/06/20 19:01:34.865, True, 1.659, 0.140764
2023/06/20 19:01:35.361, True, 1.687, 0.140688
2023/06/20 19:01:35.865, True, 1.656, 0.140002
2023/06/20 19:01:36.369, True, 1.658, 0.139620
2023/06/20 19:01:36.873, True, 1.326, 0.140078
2023/06/20 19:01:37.368, True, 1.685, 0.140078
2023/06/20 19:01:37.873, True, 1.327, 0.139162
2023/06/20 19:01:38.377, True, 1.659, 0.138552
2023/06/20 19:01:38.873, True, 1.684, 0.142061
2023/06/20 19:01:39.377, True, 1.329, 0.141680
2023/06/20 19:01:39.881, True, 1.324, 0.141909
2023/06/20 19:01:40.377, True, 1.685, 0.140764
2023/06/20 19:01:40.881, True, 1.658, 0.140459
2023/06/20 19:01:41.385, True, 1.659, 0.140078
2023/06/20 19:01:41.881, True, 1.683, 0.138933
2023/06/20 19:01:42.385, True, 1.658, 0.140230
2023/06/20 19:01:42.889, True, 1.658, 0.137331
2023/06/20 19:01:43.385, True, 1.685, 0.139391
2023/06/20 19:01:43.889, True, 1.659, 0.141833
2023/06/20 19:01:44.385, True, 1.687, 0.139315
2023/06/20 19:01:44.889, True, 1.655, 0.138018
2023/06/20 19:01:45.393, True, 1.658, 0.140383
2023/06/20 19:01:45.889, True, 1.685, 0.138781
2023/06/20 19:01:46.393, True, 1.658, 0.138705
2023/06/20 19:01:46.897, True, 1.659, 0.137713
2023/06/20 19:01:47.393, True, 1.684, 0.138781
2023/06/20 19:01:47.897, True, 1.658, 0.138933
2023/06/20 19:01:48.401, True, 1.661, 0.140688
2023/06/20 19:01:48.897, True, 1.681, 0.138933
2023/06/20 19:01:49.401, True, 1.658, 0.139391
2023/06/20 19:01:49.905, True, 1.658, 0.142596
2023/06/20 19:01:50.401, True, 1.685, 0.140307
2023/06/20 19:01:50.905, True, 1.658, 0.140612
2023/06/20 19:01:51.409, True, 1.990, 0.138399
2023/06/20 19:01:51.905, True, 1.348, 0.139849
2023/06/20 19:01:52.409, True, 1.658, 0.139010
2023/06/20 19:01:52.913, True, 1.659, 0.140002
2023/06/20 19:01:53.409, True, 1.684, 0.140383
2023/06/20 19:01:53.913, True, 1.659, 0.137407
2023/06/20 19:01:54.417, True, 1.989, 0.139849
2023/06/20 19:01:54.913, True, 1.687, 0.138857
2023/06/20 19:01:55.417, True, 1.656, 0.139467
2023/06/20 19:01:55.921, True, 1.658, 0.140002
2023/06/20 19:01:56.417, True, 1.685, 0.139315
2023/06/20 19:01:56.921, True, 1.658, 0.141299
2023/06/20 19:01:57.417, True, 1.685, 0.140383
2023/06/20 19:01:57.921, True, 1.990, 0.140307
2023/06/20 19:01:58.425, True, 1.658, 0.141604
2023/06/20 19:01:58.929, True, 1.658, 0.140383
2023/06/20 19:01:59.425, True, 1.685, 0.138094
2023/06/20 19:01:59.929, True, 1.658, 0.138476
2023/06/20 19:02:00.433, True, 1.660, 0.138247
2023/06/20 19:02:00.929, True, 1.682, 0.140383
2023/06/20 19:02:01.433, True, 1.658, 0.138094
2023/06/20 19:02:01.937, True, 1.990, 0.138247
2023/06/20 19:02:02.433, True, 1.685, 0.140002
2023/06/20 19:02:02.937, True, 1.658, 0.141604
2023/06/20 19:02:03.441, True, 1.658, 0.136721
2023/06/20 19:02:03.945, True, 1.658, 0.140459
2023/06/20 19:02:04.441, True, 1.685, 0.138781
2023/06/20 19:02:04.945, True, 1.658, 0.140002
2023/06/20 19:02:05.449, True, 1.661, 0.138552
2023/06/20 19:02:05.945, True, 1.345, 0.141375
2023/06/20 19:02:06.449, True, 1.658, 0.139696
2023/06/20 19:02:06.953, True, 1.658, 0.138857
2023/06/20 19:02:07.449, True, 1.685, 0.135576
2023/06/20 19:02:07.953, True, 1.658, 0.138628
2023/06/20 19:02:08.457, True, 1.658, 0.140536
2023/06/20 19:02:08.953, True, 1.685, 0.138018
2023/06/20 19:02:09.457, True, 1.658, 0.139086
2023/06/20 19:02:09.961, True, 1.658, 0.139696
2023/06/20 19:02:10.457, True, 1.684, 0.139239
2023/06/20 19:02:10.961, True, 1.658, 0.139010
2023/06/20 19:02:11.457, True, 1.685, 0.138094
2023/06/20 19:02:11.961, True, 1.658, 0.139162
2023/06/20 19:02:12.465, True, 1.661, 0.139544
2023/06/20 19:02:12.961, True, 1.345, 0.138857
2023/06/20 19:02:13.465, True, 1.658, 0.139544
2023/06/20 19:02:13.969, True, 1.659, 0.138323
2023/06/20 19:02:14.465, True, 1.684, 0.140536
2023/06/20 19:02:14.969, True, 1.658, 0.140307
2023/06/20 19:02:15.473, True, 1.660, 0.138170
2023/06/20 19:02:15.969, True, 1.682, 0.138247
2023/06/20 19:02:16.473, True, 1.658, 0.137636
2023/06/20 19:02:16.977, True, 1.658, 0.138552
2023/06/20 19:02:17.473, True, 1.685, 0.139086
2023/06/20 19:02:17.977, True, 1.658, 0.139162
2023/06/20 19:02:18.481, True, 1.658, 0.136873
2023/06/20 19:02:18.977, True, 1.685, 0.138628
2023/06/20 19:02:19.481, True, 1.658, 0.137713
2023/06/20 19:02:19.985, True, 1.658, 0.138247
2023/06/20 19:02:20.481, True, 1.684, 0.139696
2023/06/20 19:02:20.985, True, 1.660, 0.139467
2023/06/20 19:02:21.489, True, 1.988, 0.137560
2023/06/20 19:02:21.985, True, 1.684, 0.139162
2023/06/20 19:02:22.489, True, 1.661, 0.138018
2023/06/20 19:02:22.993, True, 1.655, 0.137484
2023/06/20 19:02:23.489, True, 1.685, 0.139773
2023/06/20 19:02:23.993, True, 1.989, 0.136416
2023/06/20 19:02:24.497, True, 1.659, 0.136034
2023/06/20 19:02:24.993, True, 1.685, 0.138857
2023/06/20 19:02:25.497, True, 1.660, 0.139544
2023/06/20 19:02:26.001, True, 1.655, 0.137865
2023/06/20 19:02:26.497, True, 1.685, 0.140154
2023/06/20 19:02:27.001, True, 1.989, 0.138018
2023/06/20 19:02:27.505, True, 1.659, 0.138857
2023/06/20 19:02:28.001, True, 1.684, 0.140536
2023/06/20 19:02:28.505, True, 1.657, 0.137713
2023/06/20 19:02:29.009, True, 1.658, 0.140002
2023/06/20 19:02:29.505, True, 1.685, 0.139162
2023/06/20 19:02:30.009, True, 1.658, 0.138628
2023/06/20 19:02:30.512, True, 1.989, 0.135729
2023/06/20 19:02:31.017, True, 1.658, 0.136110
2023/06/20 19:02:31.513, True, 1.685, 0.135424
2023/06/20 19:02:32.017, True, 1.658, 0.138399
2023/06/20 19:02:32.521, True, 1.658, 0.138323
2023/06/20 19:02:33.017, True, 1.684, 0.135500
2023/06/20 19:02:33.521, True, 1.658, 0.137865
2023/06/20 19:02:34.025, True, 1.658, 0.137789
2023/06/20 19:02:34.521, True, 1.684, 0.140383
2023/06/20 19:02:35.025, True, 1.658, 0.137484
2023/06/20 19:02:35.521, True, 1.685, 0.138933
2023/06/20 19:02:36.025, True, 1.658, 0.138933
2023/06/20 19:02:36.529, True, 1.658, 0.139696
2023/06/20 19:02:37.025, True, 1.685, 0.139086
2023/06/20 19:02:37.529, True, 1.658, 0.139086
2023/06/20 19:02:38.033, True, 1.658, 0.137484
2023/06/20 19:02:38.529, True, 1.685, 0.138628
2023/06/20 19:02:39.032, True, 1.326, 0.136568
2023/06/20 19:02:39.537, True, 1.658, 0.137102
2023/06/20 19:02:40.033, True, 1.685, 0.137636
2023/06/20 19:02:40.537, True, 1.658, 0.137255
2023/06/20 19:02:41.041, True, 1.990, 0.137484
2023/06/20 19:02:41.545, True, 1.658, 0.136721
2023/06/20 19:02:42.041, True, 1.348, 0.138323
2023/06/20 19:02:42.545, True, 1.990, 0.140459
2023/06/20 19:02:43.049, True, 1.658, 0.137713
2023/06/20 19:02:43.545, True, 1.685, 0.136950
2023/06/20 19:02:44.049, True, 1.658, 0.137026
2023/06/20 19:02:44.553, True, 1.658, 0.137942
2023/06/20 19:02:45.049, True, 1.685, 0.137407
2023/06/20 19:02:45.553, True, 1.658, 0.137026
2023/06/20 19:02:46.057, True, 1.660, 0.137331
2023/06/20 19:02:46.553, True, 1.682, 0.137865
2023/06/20 19:02:47.057, True, 1.658, 0.136873
2023/06/20 19:02:47.561, True, 1.658, 0.135195
2023/06/20 19:02:48.057, True, 2.024, 0.138628
2023/06/20 19:02:48.560, True, 1.656, 0.136568
2023/06/20 19:02:49.065, True, 1.658, 0.137102
2023/06/20 19:02:49.561, True, 1.685, 0.137942
2023/06/20 19:02:50.065, True, 1.658, 0.138399
2023/06/20 19:02:50.568, True, 1.658, 0.138552
2023/06/20 19:02:51.064, True, 1.684, 0.136950
2023/06/20 19:02:51.569, True, 1.990, 0.136187
2023/06/20 19:02:52.072, True, 1.658, 0.137713
2023/06/20 19:02:52.568, True, 1.685, 0.137789
2023/06/20 19:02:53.072, True, 1.658, 0.137636
2023/06/20 19:02:53.576, True, 1.658, 0.138018
2023/06/20 19:02:54.072, True, 1.685, 0.135958
2023/06/20 19:02:54.577, True, 1.659, 0.137255
2023/06/20 19:02:55.081, True, 1.657, 0.136873
2023/06/20 19:02:55.576, True, 1.350, 0.135195
2023/06/20 19:02:56.080, True, 1.986, 0.137102
2023/06/20 19:02:56.584, True, 1.658, 0.136492
2023/06/20 19:02:57.089, True, 1.661, 0.137026
2023/06/20 19:02:57.585, True, 1.682, 0.137102
2023/06/20 19:02:58.089, True, 1.658, 0.136950
2023/06/20 19:02:58.584, True, 1.685, 0.136950
2023/06/20 19:02:59.089, True, 1.661, 0.135195
2023/06/20 19:02:59.593, True, 1.655, 0.136110
2023/06/20 19:03:00.089, True, 1.685, 0.138476
2023/06/20 19:03:00.593, True, 1.661, 0.136416
2023/06/20 19:03:01.097, True, 1.655, 0.135042
2023/06/20 19:03:01.601, True, 1.659, 0.136263
2023/06/20 19:03:02.097, True, 1.684, 0.136873
2023/06/20 19:03:02.601, True, 1.658, 0.136492
2023/06/20 19:03:03.105, True, 1.658, 0.135729
2023/06/20 19:03:03.601, True, 1.685, 0.136187
2023/06/20 19:03:04.105, True, 1.660, 0.138170
2023/06/20 19:03:04.609, True, 1.655, 0.136034
2023/06/20 19:03:05.113, True, 1.658, 0.135653
2023/06/20 19:03:05.609, True, 1.686, 0.135271
2023/06/20 19:03:06.113, True, 1.658, 0.137713
2023/06/20 19:03:06.609, True, 1.684, 0.138399
2023/06/20 19:03:07.113, True, 1.658, 0.135882
2023/06/20 19:03:07.617, True, 1.659, 0.135958
2023/06/20 19:03:08.113, True, 1.684, 0.137789
2023/06/20 19:03:08.617, True, 1.657, 0.137942
2023/06/20 19:03:09.112, True, 1.685, 0.137865
2023/06/20 19:03:09.617, True, 1.658, 0.136568
2023/06/20 19:03:10.121, True, 1.658, 0.135576
2023/06/20 19:03:10.617, True, 1.685, 0.136568
2023/06/20 19:03:11.121, True, 1.658, 0.137636
2023/06/20 19:03:11.625, True, 1.992, 0.135271
2023/06/20 19:03:12.121, True, 1.685, 0.134356
2023/06/20 19:03:12.625, True, 1.656, 0.136034
2023/06/20 19:03:13.129, True, 1.658, 0.134661
2023/06/20 19:03:13.633, True, 1.658, 0.136797
2023/06/20 19:03:14.129, True, 1.685, 0.137102
2023/06/20 19:03:14.633, True, 1.658, 0.133593
2023/06/20 19:03:15.137, True, 1.658, 0.133974
2023/06/20 19:03:15.633, True, 1.685, 0.135119
2023/06/20 19:03:16.137, True, 1.658, 0.134737
2023/06/20 19:03:16.641, True, 1.658, 0.135271
2023/06/20 19:03:17.137, True, 1.687, 0.135576
2023/06/20 19:03:17.641, True, 1.659, 0.134737
2023/06/20 19:03:18.144, True, 1.658, 0.137102
2023/06/20 19:03:18.648, True, 1.987, 0.136950
2023/06/20 19:03:19.145, True, 1.684, 0.136873
2023/06/20 19:03:19.649, True, 1.658, 0.135576
2023/06/20 19:03:20.153, True, 1.659, 0.135729
2023/06/20 19:03:20.649, True, 1.684, 0.138247
2023/06/20 19:03:21.153, True, 1.658, 0.138552
2023/06/20 19:03:21.657, True, 1.658, 0.137102
2023/06/20 19:03:22.153, True, 1.685, 0.134508
2023/06/20 19:03:22.657, True, 1.658, 0.134737
2023/06/20 19:03:23.161, True, 1.990, 0.138705
2023/06/20 19:03:23.657, True, 1.685, 0.135348
2023/06/20 19:03:24.161, True, 1.658, 0.133516
2023/06/20 19:03:24.665, True, 1.992, 0.136110
2023/06/20 19:03:25.161, True, 1.683, 0.135653
2023/06/20 19:03:25.665, True, 1.661, 0.133059
2023/06/20 19:03:26.169, True, 1.657, 0.137255
2023/06/20 19:03:26.665, True, 1.683, 0.133974
2023/06/20 19:03:27.169, True, 1.658, 0.135882
2023/06/20 19:03:27.665, True, 1.686, 0.133593
2023/06/20 19:03:28.169, True, 1.658, 0.135424
2023/06/20 19:03:28.673, True, 1.658, 0.137331
2023/06/20 19:03:29.169, True, 1.685, 0.134737
2023/06/20 19:03:29.673, True, 1.658, 0.136721
2023/06/20 19:03:30.177, True, 1.658, 0.134508
2023/06/20 19:03:30.673, True, 1.685, 0.138094
2023/06/20 19:03:31.177, True, 1.989, 0.133974
2023/06/20 19:03:31.681, True, 1.658, 0.134508
2023/06/20 19:03:32.177, True, 1.686, 0.137179
2023/06/20 19:03:32.681, True, 1.656, 0.134279
2023/06/20 19:03:33.185, True, 1.327, 0.134966
2023/06/20 19:03:33.681, True, 1.685, 0.134737
2023/06/20 19:03:34.185, True, 1.992, 0.135729
2023/06/20 19:03:34.689, True, 1.656, 0.134279
2023/06/20 19:03:35.185, True, 1.685, 0.137026
2023/06/20 19:03:35.689, True, 1.658, 0.134127
2023/06/20 19:03:36.193, True, 1.658, 0.137026
2023/06/20 19:03:36.689, True, 1.685, 0.135805
2023/06/20 19:03:37.193, True, 1.658, 0.135195
2023/06/20 19:03:37.697, True, 1.658, 0.135424
2023/06/20 19:03:38.193, True, 1.685, 0.135119
2023/06/20 19:03:38.697, True, 1.658, 0.133745
2023/06/20 19:03:39.201, True, 1.660, 0.136034
2023/06/20 19:03:39.697, True, 1.683, 0.134890
2023/06/20 19:03:40.201, True, 1.658, 0.133822
2023/06/20 19:03:40.705, True, 1.990, 0.135576
2023/06/20 19:03:41.201, True, 1.685, 0.137713
2023/06/20 19:03:41.704, True, 1.658, 0.134203
2023/06/20 19:03:42.209, True, 1.326, 0.134508
2023/06/20 19:03:42.705, True, 1.685, 0.135653
2023/06/20 19:03:43.209, True, 1.658, 0.134737
2023/06/20 19:03:43.713, True, 1.658, 0.134051
2023/06/20 19:03:44.209, True, 1.685, 0.135805
2023/06/20 19:03:44.713, True, 1.658, 0.136721
2023/06/20 19:03:45.217, True, 1.661, 0.133135
2023/06/20 19:03:45.713, True, 1.346, 0.135195
2023/06/20 19:03:46.217, True, 1.658, 0.136492
2023/06/20 19:03:46.721, True, 1.659, 0.133898
2023/06/20 19:03:47.217, True, 1.684, 0.135958
2023/06/20 19:03:47.721, True, 1.658, 0.133440
2023/06/20 19:03:48.225, True, 1.658, 0.135653
2023/06/20 19:03:48.721, True, 2.022, 0.133288
2023/06/20 19:03:49.225, True, 1.658, 0.135271
2023/06/20 19:03:49.729, True, 1.658, 0.136492
2023/06/20 19:03:50.225, True, 1.685, 0.133135
2023/06/20 19:03:50.729, True, 1.658, 0.134203
2023/06/20 19:03:51.233, True, 1.658, 0.133974
2023/06/20 19:03:51.729, True, 2.022, 0.135042
2023/06/20 19:03:52.233, True, 1.658, 0.134432
2023/06/20 19:03:52.737, True, 1.658, 0.135195
2023/06/20 19:03:53.233, True, 1.685, 0.134813
2023/06/20 19:03:53.737, True, 1.659, 0.135576
2023/06/20 19:03:54.241, True, 1.989, 0.135195
2023/06/20 19:03:54.737, True, 1.685, 0.134203
2023/06/20 19:03:55.241, True, 1.658, 0.135576
2023/06/20 19:03:55.744, True, 1.658, 0.135805
2023/06/20 19:03:56.241, True, 1.685, 0.132601
2023/06/20 19:03:56.745, True, 1.658, 0.132143
2023/06/20 19:03:57.249, True, 1.658, 0.136034
2023/06/20 19:03:57.745, True, 1.685, 0.134432
2023/06/20 19:03:58.249, True, 1.658, 0.133516
2023/06/20 19:03:58.753, True, 1.990, 0.135576
2023/06/20 19:03:59.257, True, 1.658, 0.135042
2023/06/20 19:03:59.753, True, 1.348, 0.132753
2023/06/20 19:04:00.257, True, 1.989, 0.133898
2023/06/20 19:04:00.753, True, 1.685, 0.134813
2023/06/20 19:04:01.257, True, 1.658, 0.135653
2023/06/20 19:04:01.761, True, 1.658, 0.133364
2023/06/20 19:04:02.257, True, 1.348, 0.136492
2023/06/20 19:04:02.761, True, 1.658, 0.132753
2023/06/20 19:04:03.265, True, 1.658, 0.132982
2023/06/20 19:04:03.769, True, 1.658, 0.134661
2023/06/20 19:04:04.265, True, 1.685, 0.133364
2023/06/20 19:04:04.769, True, 1.658, 0.135424
2023/06/20 19:04:05.273, True, 1.658, 0.134279
2023/06/20 19:04:05.769, True, 1.685, 0.132448
2023/06/20 19:04:06.272, True, 1.658, 0.135500
2023/06/20 19:04:06.777, True, 1.658, 0.134203
2023/06/20 19:04:07.272, True, 1.685, 0.131609
2023/06/20 19:04:07.777, True, 1.658, 0.135042
2023/06/20 19:04:08.281, True, 1.658, 0.133135
2023/06/20 19:04:08.777, True, 1.686, 0.132601
2023/06/20 19:04:09.280, True, 1.657, 0.133593
2023/06/20 19:04:09.785, True, 1.658, 0.131838
2023/06/20 19:04:10.281, True, 1.685, 0.132219
2023/06/20 19:04:10.785, True, 1.658, 0.134585
2023/06/20 19:04:11.289, True, 1.989, 0.135119
2023/06/20 19:04:11.785, True, 1.685, 0.131304
2023/06/20 19:04:12.289, True, 1.660, 0.135653
2023/06/20 19:04:12.793, True, 1.656, 0.136263
2023/06/20 19:04:13.289, True, 1.684, 0.135195
2023/06/20 19:04:13.793, True, 1.658, 0.134737
2023/06/20 19:04:14.297, True, 1.659, 0.134890